CAPE
1642 1527 1410 1375 1436 1433 1374 2043 1259 1243 1472 1177 702 1043 1375 1077 922 574 400 307 377 222
1819 1760 1433 1443 1469 1366 1511 1412 1314 1271 1380 926 978 1465 1254 901 642 602 683 773 575 317
1712 1703 1596 1367 1376 1139 1230 1292 1292 1032 842 954 831 794 1023 1208 925 705 739 869 537 338
1623 1947 1520 1158 1011 895 911 1023 653 510 523 188 242 575 617 495 899 511 494 538 723 447
1267 771 1279 630 554 524 604 549 517 514 494 599 593 408 214 156 502 396 280 363 376 625
409 284 266 224 259 363 472 555 565 466 442 475 400 341 239 54 44 66 21 171 280 244
337 187 231 175 193 217 177 195 191 321 272 231 361 143 131 147 21 22 15 56 79 22
153 255 276 198 173 167 126 120 116 124 138 38 9 42 41 26 64 24 19 36 3 0
14 19 47 73 8 98 107 28 0 4 47 4 0 30 16 29 20 64 60 70 78 5
0 0 0 0 0 0 0 0 6 2 0 2 9 4 0 11 0 69 79 35 37 32
0 0 0 0 0 0 0 0 0 0 0 0 2 0 0 0 0 0 0 16 47 41
0 0 0 0 0 0 0 0 0 0 0 0 0 0 0 0 0 0 0 0 0 0
0 0 0 0 0 0 0 0 0 0 0 0 0 0 0 0 0 0 0 0 0 0
0 0 0 0 0 0 0 0 0 0 0 0 0 0 0 0 0 0 0 0 0 0
CIN
-86 -72 -79 -76 -67 -61 -70 -16 -72 -61 -27 -38 -79 -49 -0 -8 -28 -48 -61 -59 -52 -70
-29 -48 -62 -52 -28 -47 -20 -14 -26 -20 -9 -36 -23 -0 -7 -18 -48 -63 -29 -5 -24 -50
-17 -13 -13 -40 -44 -54 -62 -52 -8 -0 -0 -0 -0 -0 -0 -0 -11 -14 -19 -18 -17 -40
-8 -0 -0 -13 -28 -60 -62 -35 -42 -40 -29 -0 -3 -0 -0 -0 -0 -15 -19 -27 -17 -22
-0 -4 -0 -15 -33 -36 -17 -16 -0 -6 -4 -0 -0 -5 -1 -0 -0 -0 -3 -5 -29 -12
-0 -26 -21 -8 -0 -0 -0 -0 -0 -0 -0 -0 -0 -0 -0 -18 -0 -1 -10 -0 -0 -3
-0 -4 -2 -9 -3 -0 -0 -0 -3 -0 -2 -0 -0 -1 -0 -0 -9 -1 -42 -6 -1 -22
-0 -0 -0 -1 -0 -0 -0 -0 -0 -0 -0 -38 -20 -11 -7 -2 -0 -0 -6 -3 -6 -0
-0 -32 -19 -19 -0 -0 -0 -10 -0 -6 -0 -0 -0 -2 -5 -5 -2 -0 -17 -8 -0 -16
-0 -0 -0 -0 -0 -0 -0 -0 -0 -0 -0 -0 -0 -0 -0 -6 -0 -3 -0 -1 -3 -35
-0 -0 -0 -0 -0 -0 -0 -0 -0 -0 -0 -0 -0 -0 -0 -0 -0 -0 -0 -0 -0 -6
-0 -0 -0 -0 -0 -0 -0 -0 -0 -0 -0 -0 -0 -0 -0 -0 -0 -0 -0 -0 -0 -0
-0 -0 -0 -0 -0 -0 -0 -0 -0 -0 -0 -0 -0 -0 -0 -0 -0 -0 -0 -0 -0 -0
-0 -0 -0 -0 -0 -0 -0 -0 -0 -0 -0 -0 -0 -0 -0 -0 -0 -0 -0 -0 -0 -0
Wind_Speed
42 41 41 36 39 41 40 42 46 50 51 49 45 48 49 49 43 39 34 33 34 31
45 44 40 36 37 42 45 49 55 54 61 55 54 53 51 53 49 43 39 36 36 31
60 54 48 44 42 43 44 48 54 58 64 61 60 58 57 56 54 50 47 42 39 36
67 65 62 62 57 56 58 53 49 46 48 50 37 46 61 60 60 54 50 48 42 40
75 71 69 68 65 65 62 56 38 44 44 33 37 35 44 64 62 55 54 51 49 43
73 75 73 68 62 66 53 53 53 55 56 55 51 42 36 nan nan nan nan 54 52 50
66 75 76 73 72 68 66 65 63 60 63 60 51 54 50 41 nan nan nan nan nan nan
65 65 69 70 62 68 70 64 60 62 65 nan nan nan nan nan nan nan nan nan nan nan
nan nan nan nan nan nan 64 nan nan nan nan nan nan nan nan nan nan nan nan nan nan nan
nan nan nan nan nan nan nan nan nan nan nan nan nan nan nan nan nan nan nan nan nan nan
nan nan nan nan nan nan nan nan nan nan nan nan nan nan nan nan nan nan nan nan nan nan
nan nan nan nan nan nan nan nan nan nan nan nan nan nan nan nan nan nan nan nan nan nan
nan nan nan nan nan nan nan nan nan nan nan nan nan nan nan nan nan nan nan nan nan nan
nan nan nan nan nan nan nan nan nan nan nan nan nan nan nan nan nan nan nan nan nan nan
Wind_Direction
249 243 240 241 242 245 247 245 243 241 242 246 249 252 257 257 257 258 256 258 256 249
245 246 246 247 250 247 248 246 246 243 240 240 244 246 250 251 256 255 255 254 256 251
240 238 236 240 241 247 255 261 263 252 243 244 243 246 248 249 252 252 252 250 254 251
236 237 233 236 237 240 245 251 256 262 264 257 253 261 253 249 250 252 251 252 255 258
230 232 234 231 232 236 242 242 237 245 257 260 266 266 281 249 248 254 253 254 253 258
227 225 229 228 228 232 244 243 240 235 245 245 245 255 275 nan nan nan nan 250 254 255
227 227 227 231 234 233 236 239 243 246 246 248 246 244 243 257 nan nan nan nan nan nan
223 228 228 226 229 233 237 239 240 247 251 nan nan nan nan nan nan nan nan nan nan nan
nan nan nan nan nan nan 234 nan nan nan nan nan nan nan nan nan nan nan nan nan nan nan
nan nan nan nan nan nan nan nan nan nan nan nan nan nan nan nan nan nan nan nan nan nan
nan nan nan nan nan nan nan nan nan nan nan nan nan nan nan nan nan nan nan nan nan nan
nan nan nan nan nan nan nan nan nan nan nan nan nan nan nan nan nan nan nan nan nan nan
nan nan nan nan nan nan nan nan nan nan nan nan nan nan nan nan nan nan nan nan nan nan
nan nan nan nan nan nan nan nan nan nan nan nan nan nan nan nan nan nan nan nan nan nan